RH
17 15 14 16 21 15 14 14 15 13 20 27 15 10 10 10 10 11 11 14 14 13 16 17 24 28 30 30 22 18 16 15 17 20 24 26 26 26 25 23 21 19 25 23
15 12 17 21 20 18 18 18 13 13 13 15 14 11 9 9 8 9 11 16 20 26 25 29 36 34 31 29 24 21 21 21 21 23 26 28 28 28 26 23 23 23 24 26
26 22 21 18 18 19 18 18 16 14 16 15 12 10 8 8 9 10 13 20 26 34 39 36 32 29 28 27 25 25 27 30 32 32 31 30 29 29 28 28 25 23 25 24
33 30 30 28 21 20 13 16 15 15 17 15 15 8 9 10 12 14 16 23 25 32 39 32 28 27 28 30 29 28 28 29 29 28 28 28 29 31 31 29 27 26 25 26
40 36 34 30 25 24 19 20 20 19 18 16 15 13 10 13 12 12 16 20 26 35 40 34 29 28 28 31 33 32 30 30 28 26 25 29 32 31 30 30 30 29 26 27
52 50 44 41 44 41 32 27 26 26 23 16 16 17 12 15 16 17 20 24 29 36 41 36 33 32 32 32 32 30 28 27 26 24 23 26 35 34 30 26 26 27 29 27
75 70 65 52 45 46 43 39 32 28 24 20 20 21 19 19 21 22 26 30 36 38 35 40 44 39 36 37 36 36 37 38 35 31 26 27 37 41 35 29 27 25 26 27
72 60 71 72 70 63 50 46 40 36 31 32 32 22 20 25 27 32 36 42 39 31 29 36 42 40 45 48 47 43 48 44 39 38 31 33 38 44 42 35 31 27 24 23
84 64 59 61 70 72 54 56 74 81 66 58 27 25 23 31 33 32 35 33 36 36 34 39 43 49 53 56 58 53 45 42 38 42 37 31 32 47 49 48 44 37 32 31
79 96 72 85 65 55 73 68 65 69 71 63 33 39 24 35 44 39 38 38 41 46 47 48 48 52 58 59 52 50 49 46 40 44 35 30 29 45 48 45 37 33 35 41
98 100 65 92 71 75 82 89 96 97 95 83 68 26 29 39 43 36 42 49 53 61 63 67 63 58 60 55 51 59 52 46 46 45 40 39 34 37 44 42 36 36 41 47
97 98 87 64 78 84 90 86 100 86 63 93 95 40 38 36 47 50 50 51 50 63 72 62 59 58 57 55 53 46 48 50 52 49 44 40 39 42 38 38 40 51 48 50
97 97 97 88 77 67 76 79 88 90 98 95 88 61 39 45 58 56 58 61 81 82 73 74 75 61 57 64 59 57 62 61 56 48 42 43 37 31 27 28 36 49 51 54
100 98 97 91 79 98 100 97 100 100 100 80 75 73 50 42 42 44 50 81 91 73 87 100 83 64 68 80 81 85 73 60 50 43 42 40 32 31 31 33 45 52 54 55
100 100 100 100 97 97 98 98 99 100 97 100 74 70 62 43 50 72 61 61 97 87 99 94 82 74 64 65 63 56 52 50 48 45 43 41 38 36 33 46 66 64 64 75
88 98 99 96 93 96 92 86 97 78 76 100 98 93 53 71 75 40 47 70 100 98 95 98 100 99 76 70 68 61 55 48 49 47 40 42 43 37 50 68 75 71 82 93
43 62 70 82 88 99 100 74 67 95 81 72 95 71 86 80 81 74 91 94 99 99 95 88 86 80 62 50 51 47 42 43 41 46 52 54 46 73 84 78 75 76 80 96
57 58 50 44 80 100 67 63 74 71 84 76 63 85 98 77 56 82 85 83 93 79 78 76 72 69 60 56 51 45 50 61 82 80 72 71 87 94 92 93 100 100 100 99
78 85 98 100 82 61 76 34 36 31 31 42 49 46 46 39 51 88 87 84 90 76 69 68 70 80 78 73 57 51 53 79 74 92 89 60 49 63 62 72 73 84 98 100
80 100 96 99 100 96 77 79 78 68 88 47 30 28 48 81 100 80 62 71 56 62 67 72 70 62 98 91 45 40 46 63 49 55 55 52 39 54 71 60 68 36 33 88
100 99 99 90 99 99 96 100 100 100 69 72 88 87 77 76 86 65 64 32 37 61 60 71 66 59 52 60 66 68 60 62 95 66 42 38 36 55 73 96 93 60 14 24
76 94 99 100 100 96 92 76 72 60 60 62 87 95 87 86 62 63 53 49 47 57 55 74 57 46 44 45 79 68 77 82 85 68 43 35 34 38 62 82 79 82 70 22
100 99 96 69 62 91 100 80 92 84 100 100 100 98 74 74 67 59 68 50 43 38 38 55 59 45 44 49 57 82 96 92 91 57 51 56 45 42 46 42 23 73 62 54
60 98 100 91 97 100 100 100 99 100 100 100 100 100 97 92 99 79 87 74 61 46 50 50 58 54 51 62 78 91 96 73 75 59 58 70 59 55 65 90 79 11 30 33
5 2 17 59 84 68 94 100 94 92 100 96 91 100 100 100 88 100 100 77 71 72 61 61 58 54 43 57 100 100 95 93 86 72 72 79 89 85 59 40 89 40 10 30
12 9 7 6 4 8 20 42 100 96 66 91 100 85 65 47 98 100 100 92 82 100 100 80 79 72 58 51 90 100 100 91 92 79 81 97 100 66 40 62 47 47 41 30
Wind_Speed
47 49 40 37 42 46 44 44 45 34 35 53 48 47 40 39 32 33 30 28 33 37 38 37 35 37 40 41 40 39 40 42 44 46 47 48 47 48 47 47 45 43 42 41
52 55 41 45 46 50 48 50 49 47 42 52 52 52 44 39 36 27 27 28 32 38 40 36 37 37 41 41 39 40 41 44 47 48 50 50 50 50 51 49 46 44 43 43
54 55 50 50 51 51 52 53 53 54 48 55 53 57 44 36 32 28 26 29 31 35 35 28 30 34 37 39 41 41 46 48 47 49 51 51 51 51 50 51 48 45 45 43
57 54 53 55 55 49 56 52 53 52 54 59 55 64 47 40 37 35 31 31 31 31 32 31 34 36 38 42 44 45 49 50 51 51 50 51 50 52 51 49 48 48 47 46
50 49 51 51 48 47 53 51 51 55 59 63 62 61 58 51 43 41 37 40 35 33 29 32 33 36 37 42 46 50 54 55 53 51 50 51 52 53 51 50 51 49 49 48
49 50 54 55 53 53 56 57 58 59 61 70 64 60 57 54 50 50 52 48 42 36 35 34 33 35 37 42 47 50 50 52 51 52 51 51 51 52 54 55 55 52 52 53
49 51 52 54 54 52 52 57 59 64 67 68 65 66 61 57 55 51 53 53 45 44 43 38 27 34 37 40 46 49 52 52 52 48 45 43 46 51 54 55 55 53 52 53
55 56 50 48 48 49 52 53 57 61 64 66 65 65 58 55 54 55 57 55 49 45 37 31 37 35 40 43 46 50 52 54 52 50 46 47 48 47 49 50 51 52 53 53
56 58 57 55 52 51 56 59 53 59 61 65 63 65 61 59 60 55 56 58 47 40 40 38 38 41 48 48 52 55 56 57 56 53 48 48 46 44 48 52 52 54 57 57
64 61 56 58 59 63 62 58 60 64 67 70 67 64 59 64 69 66 55 52 54 49 46 44 45 45 48 55 55 58 59 55 55 53 48 47 47 44 46 51 55 59 61 63
62 64 64 64 63 60 62 64 66 67 71 74 73 63 64 69 66 64 62 59 55 58 58 58 51 52 53 58 59 56 58 58 55 52 51 52 50 48 51 56 61 63 63 64
66 71 77 73 68 65 70 71 70 72 73 76 73 72 68 65 62 61 62 63 60 59 60 64 60 55 57 61 61 61 60 57 53 52 54 51 52 55 59 60 64 64 64 66
77 80 82 80 71 70 70 68 68 70 69 75 77 77 62 58 61 59 65 61 57 61 64 66 65 63 61 58 60 60 58 56 57 54 51 53 55 59 61 66 71 70 67 67
67 68 55 55 54 54 67 68 73 67 60 71 75 73 61 60 61 59 56 56 60 62 66 59 61 60 58 56 54 54 59 59 56 54 55 53 58 63 65 68 71 71 69 71
87 74 71 66 70 60 53 57 53 51 61 68 71 73 69 64 62 59 60 63 61 63 53 51 53 54 58 55 54 53 55 57 58 57 58 64 69 72 70 69 69 70 72 69
99 106 98 97 86 87 88 82 81 66 65 66 71 74 68 59 59 61 61 60 48 47 41 48 55 59 56 57 57 63 67 67 62 62 67 68 70 72 73 71 65 60 63 62
98 94 100 97 97 97 87 92 83 74 68 63 64 64 51 53 51 49 46 46 51 57 58 65 60 63 66 65 68 70 69 66 66 67 67 67 69 70 66 61 62 63 62 65
83 83 87 91 89 97 100 95 88 89 84 86 79 71 68 66 58 59 66 66 69 73 76 73 66 73 68 64 67 63 63 64 67 65 62 61 61 66 66 64 59 57 59 65
82 80 80 86 93 95 91 90 88 90 98 92 87 90 89 77 71 74 77 70 65 69 75 74 68 65 62 65 66 64 64 70 66 67 65 59 55 58 54 55 61 66 61 66
80 76 83 84 82 88 80 65 60 63 82 75 82 88 62 54 67 69 66 66 71 63 64 65 65 66 66 69 69 71 68 64 60 62 63 67 67 61 56 53 59 65 66 63
71 72 77 67 66 66 51 42 49 83 85 81 66 58 62 67 71 76 75 74 71 71 65 66 68 71 72 72 73 71 67 59 61 59 61 58 61 61 64 66 67 66 65 67
93 92 88 78 77 98 96 88 90 87 86 78 66 61 58 62 65 68 71 69 70 72 71 70 69 67 71 74 73 67 63 61 62 61 56 57 56 57 60 64 63 65 64 63
63 68 75 85 90 78 73 72 65 66 65 69 71 63 64 69 69 65 63 58 60 60 65 71 69 63 60 65 71 69 65 64 63 64 53 49 52 63 69 72 73 72 72 62
85 69 69 65 59 68 66 61 64 58 64 61 67 70 62 68 65 68 61 57 62 60 53 57 57 58 66 75 75 71 70 70 69 65 65 64 67 68 74 78 80 78 75 68
93 97 102 103 99 100 97 84 85 89 80 83 74 58 68 71 69 61 62 65 67 65 59 62 64 60 64 75 77 75 76 76 78 81 79 82 84 83 86 82 87 88 77 71
80 87 94 101 101 106 109 100 98 105 102 93 90 93 96 99 90 71 66 71 71 71 67 72 75 73 65 73 82 85 84 85 86 82 86 90 93 97 98 95 86 85 84 72
Wind_Direction
282 280 288 292 287 287 289 288 292 297 292 291 293 291 293 293 293 295 300 295 290 289 291 293 293 292 291 289 288 286 285 285 286 288 289 288 290 290 291 291 290 287 282 278
280 279 289 281 281 283 286 290 292 294 293 287 289 286 286 290 294 294 293 296 295 295 291 294 294 291 287 285 283 282 283 284 285 288 290 290 287 287 288 289 288 287 284 281
279 282 282 278 278 280 282 282 288 289 289 285 289 284 287 289 291 287 288 293 299 301 292 291 291 293 289 282 280 283 285 286 287 289 290 289 288 287 287 287 287 285 284 281
273 278 279 278 279 282 278 280 282 283 284 286 283 287 288 294 291 291 291 294 297 295 290 290 294 290 283 277 278 281 281 282 284 286 288 289 289 289 289 288 286 286 284 281
280 278 277 275 276 274 278 280 279 279 280 282 280 287 297 295 293 292 293 298 297 292 283 292 293 283 278 275 277 280 281 283 284 285 288 288 288 288 290 290 287 288 286 283
275 272 272 275 275 275 276 276 278 278 278 277 283 289 290 291 296 299 298 298 300 297 299 291 281 272 275 275 275 279 283 285 287 288 287 285 287 289 288 288 287 287 286 285
274 272 271 272 275 274 274 275 274 273 274 282 287 284 287 293 300 297 298 298 300 302 299 292 270 283 278 275 276 276 277 279 280 285 288 283 282 285 284 287 289 288 287 287
275 274 275 271 270 271 270 270 269 273 278 280 277 281 292 295 294 295 294 297 299 304 290 284 292 283 272 276 280 278 277 280 283 284 288 289 287 287 288 288 289 288 288 290
274 270 272 272 272 270 267 267 273 273 272 274 280 284 289 292 292 292 294 296 301 301 293 289 290 285 285 284 280 279 279 279 283 284 288 289 289 290 288 288 290 292 292 290
273 272 269 269 270 270 272 274 272 272 274 276 274 279 284 288 289 292 296 297 299 297 291 290 287 283 285 285 281 277 279 283 285 288 288 289 290 288 288 291 294 295 294 292
276 273 269 271 267 272 273 272 273 272 272 275 277 277 280 285 287 289 292 294 296 294 293 289 278 281 281 279 280 284 283 282 285 285 287 292 293 295 291 293 294 292 292 290
273 274 274 273 271 265 265 267 269 272 277 275 273 270 271 278 282 283 285 283 288 290 283 284 282 281 282 284 283 281 283 286 287 288 291 293 292 292 292 292 290 289 288 287
273 283 282 274 271 272 271 272 270 272 269 264 269 270 276 273 275 281 283 285 286 283 282 284 284 282 283 282 282 284 283 284 286 290 289 288 291 294 293 290 290 288 285 287
283 283 281 277 271 271 271 270 266 261 260 265 267 273 271 276 280 276 278 276 279 283 279 280 282 283 282 280 277 277 280 286 287 289 289 288 290 293 289 288 289 286 286 286
280 280 271 273 277 276 282 276 260 263 271 270 269 269 276 281 275 276 268 268 277 274 269 281 282 280 276 277 280 285 289 291 290 291 289 290 290 291 289 288 286 286 285 284
276 277 279 275 277 281 281 280 278 280 277 278 276 275 279 278 275 268 269 271 260 259 257 281 284 282 278 278 281 285 290 292 288 287 290 287 291 290 287 286 288 290 286 286
279 281 281 277 275 275 273 277 282 279 273 278 278 286 282 281 274 271 265 261 270 272 278 283 282 283 285 283 281 283 284 285 284 283 282 282 283 281 283 283 288 294 292 292
275 274 275 276 276 271 275 273 277 276 276 276 276 275 275 275 274 275 279 281 283 282 282 283 284 285 289 281 285 283 280 279 281 281 280 284 286 281 282 290 293 287 290 289
277 276 270 272 274 276 275 276 278 278 276 277 278 278 281 283 276 271 272 277 276 279 282 285 284 271 274 274 279 278 278 279 280 275 280 286 295 292 293 289 289 293 292 294
273 271 275 268 269 271 277 278 281 279 272 275 282 285 288 280 268 267 271 266 272 274 272 270 269 265 260 263 271 273 275 276 280 284 287 288 292 292 288 291 300 296 293 294
267 264 270 281 275 271 274 269 273 277 281 288 283 277 269 264 266 266 265 269 269 271 269 265 264 265 264 266 267 267 273 273 275 276 282 295 294 289 288 290 297 298 299 296
261 262 264 263 264 276 278 278 278 279 277 272 262 263 265 263 266 266 271 271 269 269 269 267 271 273 275 272 268 270 271 268 270 274 283 298 295 290 289 292 294 296 302 300
256 258 258 259 265 267 265 273 271 269 257 260 260 264 266 269 266 271 267 267 270 266 267 270 272 275 280 277 270 267 262 266 267 271 288 299 298 296 296 296 296 296 298 299
248 246 253 252 250 250 251 257 260 238 262 246 262 266 258 272 266 264 255 268 262 256 255 261 263 271 278 274 265 261 262 265 267 272 282 291 300 299 298 295 294 297 297 297
257 255 253 252 253 253 260 258 253 262 263 264 255 250 271 265 260 243 251 275 267 249 256 257 260 273 282 274 260 260 261 261 262 269 276 282 292 299 298 296 287 293 294 294
263 261 259 261 258 257 257 256 254 255 261 252 267 265 275 270 250 249 246 269 263 251 260 264 258 265 275 277 268 259 260 262 266 273 276 280 290 293 295 295 289 288 292 290